Dewpoint
21 22 22 23 26 27 28 28 28 28 29 30 30 33 32 38 21 20 32 42 37 31 22 22 36 46 48 39 43 43 43 39 46 51 47 44 43 49 51 60 62 62 61 64 64 63 64 62 62 62 62 63 65 66 64 65 62 63 66 67 68 68 69 69 71 71 72 72 73 73 73 73 73 73 73 73 73 73 73 73 72 72 72 73 73 73 74
21 21 20 23 26 26 24 24 24 24 24 25 26 28 29 29 34 32 29 41 37 28 23 21 21 41 38 39 45 43 42 34 53 47 50 43 43 43 48 55 58 62 63 63 65 65 65 63 64 62 63 64 63 63 63 63 64 64 66 68 69 68 68 70 72 73 73 73 74 74 73 74 74 74 73 74 73 74 74 73 73 73 73 73 72 73 73
21 19 20 25 24 23 22 22 23 24 24 25 25 26 28 32 31 29 27 31 31 34 40 36 29 34 43 41 34 31 44 46 43 47 45 46 47 46 50 54 56 60 62 63 64 65 66 65 64 64 63 63 63 60 61 62 64 64 65 69 68 68 68 70 71 73 73 73 73 73 73 74 74 74 74 74 74 74 74 74 73 74 74 73 72 72 72
19 19 19 19 20 20 22 24 24 25 25 26 27 29 29 31 33 33 30 30 29 32 36 32 37 40 41 37 42 45 47 41 46 48 47 51 58 57 55 54 53 56 58 61 62 62 61 61 63 63 65 63 62 61 61 62 62 63 64 66 66 69 69 71 73 73 72 73 73 73 74 74 74 74 74 74 74 74 74 73 74 74 73 73 73 72 72
18 18 18 18 20 21 20 21 22 23 24 26 27 29 30 29 28 29 30 30 30 32 38 34 35 29 35 39 37 44 46 52 44 47 49 49 50 54 59 59 59 53 50 54 62 59 58 60 60 61 63 61 64 63 64 64 65 63 63 64 67 69 70 71 72 73 73 73 73 73 74 74 74 74 74 74 74 73 73 74 73 73 74 73 73 73 72
19 17 16 19 21 18 20 30 31 36 35 40 40 35 35 32 27 26 28 28 34 36 38 34 35 33 37 39 47 48 49 52 56 49 50 49 48 51 54 56 57 59 59 56 54 57 61 60 58 59 61 61 64 63 64 66 65 67 67 66 68 69 72 72 72 73 73 73 73 73 74 74 74 74 74 73 73 73 73 73 73 73 73 73 73 73 72
16 19 21 20 18 19 34 30 36 42 45 46 47 48 46 44 42 37 29 28 32 37 36 37 41 41 39 49 53 48 54 59 56 59 57 61 60 60 62 63 61 62 63 63 61 59 56 55 59 60 60 61 63 63 64 64 67 69 69 68 70 70 71 72 72 73 73 73 73 73 74 74 74 74 73 74 73 73 72 72 73 73 72 73 72 72 72
19 18 17 16 18 26 23 27 45 49 47 45 49 45 44 47 48 50 46 40 32 34 38 38 40 43 50 55 63 63 62 64 63 60 59 60 62 62 64 66 68 69 67 65 60 60 59 58 57 58 59 59 59 60 61 63 66 68 69 70 69 71 71 71 72 72 72 73 73 73 73 73 73 73 73 74 74 74 73 72 72 72 72 72 72 72 72
16 17 14 15 25 19 18 23 44 46 43 47 46 40 45 50 55 55 55 56 57 55 46 35 35 49 48 48 53 61 62 64 64 63 63 64 65 65 66 66 66 68 69 69 67 64 60 57 57 57 57 58 59 60 61 62 69 68 69 70 70 71 71 70 70 71 72 72 73 73 73 73 73 73 73 74 74 74 73 73 72 71 71 71 72 72 72
20 13 13 16 15 16 20 44 46 47 49 51 51 49 46 53 54 55 56 56 57 59 59 57 46 51 43 39 39 56 60 63 63 64 64 64 65 65 65 67 67 69 69 69 68 64 60 59 57 59 58 60 63 65 64 64 66 67 69 68 69 70 70 70 71 72 72 73 73 73 73 73 73 73 73 73 73 74 73 72 71 71 71 71 72 72 71
21 17 11 11 13 18 34 46 44 47 49 51 52 47 41 53 53 54 55 56 57 58 58 58 53 43 33 35 39 56 62 63 63 63 64 64 64 65 66 67 67 67 69 69 67 64 62 58 61 64 64 64 65 66 67 66 68 69 68 68 69 69 70 71 72 73 73 73 73 73 73 73 73 73 73 73 73 73 72 72 72 72 72 72 71 72 71
25 23 16 11 15 15 36 44 45 47 52 51 48 35 33 52 53 54 55 56 56 57 59 59 56 47 36 33 45 61 63 63 64 65 65 65 66 66 67 67 68 70 70 69 66 62 62 68 67 67 66 66 66 67 68 66 64 65 67 68 70 70 70 72 73 73 72 73 73 73 73 73 73 73 73 73 73 73 72 72 72 71 71 71 71 71 71
24 26 23 22 23 30 30 40 48 51 52 49 37 35 48 53 54 55 55 56 57 58 58 59 55 53 57 61 62 63 63 63 63 64 64 64 65 66 66 67 69 70 70 70 69 68 70 72 66 67 68 66 67 69 69 68 66 65 68 70 71 72 72 71 70 73 73 74 73 74 73 73 72 72 72 73 73 73 72 71 72 71 71 71 71 71 70
23 23 21 22 25 35 43 47 44 51 42 36 31 49 54 54 54 55 55 56 57 57 58 59 58 59 61 62 62 62 62 62 63 63 63 64 64 65 67 68 69 69 68 69 69 69 70 69 68 67 68 69 70 70 68 68 69 68 70 70 71 72 72 71 71 72 73 73 74 74 74 74 74 73 73 73 73 72 71 72 72 73 73 72 71 71 71
27 27 25 24 23 33 45 50 46 49 35 41 53 54 55 54 55 54 55 56 57 56 57 59 61 60 60 60 61 61 62 62 63 63 63 64 64 65 66 67 68 68 68 67 67 68 68 68 69 67 65 69 69 69 70 72 71 70 70 70 72 72 72 71 72 72 73 74 74 74 74 74 74 74 74 74 74 74 74 73 73 72 72 73 72 71 72
25 25 24 23 30 47 46 50 45 50 52 54 55 54 53 54 54 55 54 55 56 56 57 58 59 59 60 60 61 61 62 62 63 63 64 65 65 65 65 66 67 67 68 68 67 68 68 68 69 70 72 71 71 71 71 72 73 71 70 71 73 72 72 72 73 72 73 73 74 74 74 74 74 74 74 74 74 74 74 73 73 73 73 73 73 72 71
36 32 34 40 42 43 43 47 52 53 54 56 55 55 54 54 54 55 54 55 55 56 57 58 59 59 60 60 61 62 62 62 63 64 64 65 65 65 65 65 67 67 67 67 67 67 67 68 68 69 70 70 70 69 70 71 73 73 72 72 72 72 71 71 72 72 73 74 74 74 74 74 74 74 74 74 74 74 74 73 73 72 72 72 72 72 71
40 38 37 39 38 39 43 42 52 54 54 54 55 54 54 54 54 54 54 55 55 56 58 58 59 59 60 60 61 62 63 63 64 64 65 66 66 66 66 66 66 66 66 67 67 67 67 68 68 68 69 69 68 69 70 71 72 74 73 72 72 72 73 73 73 73 73 73 74 74 74 74 75 74 74 74 74 74 73 73 73 72 71 71 71 72 72
34 30 46 42 40 45 47 49 53 55 56 55 56 56 56 55 55 55 55 56 57 57 58 59 59 59 60 61 61 62 62 63 63 64 65 65 66 66 66 66 66 66 67 66 66 66 66 67 67 68 68 68 69 69 70 71 72 73 73 73 72 72 72 72 72 72 73 73 73 74 75 74 74 74 74 74 74 74 73 72 72 72 72 72 72 71 71
35 33 36 38 41 43 44 44 48 50 53 55 56 57 56 56 56 55 56 57 57 58 57 58 59 60 60 60 61 62 62 63 63 64 64 65 66 66 67 67 67 67 67 67 66 66 66 67 67 67 68 68 69 69 70 71 72 72 71 72 72 72 72 72 72 71 71 70 70 71 72 73 72 72 73 73 73 73 72 72 72 71 71 71 70 71 71
32 36 37 37 37 37 38 39 44 50 54 56 56 56 56 55 56 56 56 57 57 57 57 58 58 60 60 60 60 61 61 62 62 63 64 65 65 66 66 67 67 67 67 66 66 66 65 67 67 67 68 68 69 70 70 70 71 70 71 71 71 71 72 72 71 73 72 72 70 70 71 73 72 73 73 73 73 73 73 73 73 72 72 72 72 72 72
34 35 36 43 38 39 47 50 50 51 55 57 56 57 57 56 56 56 56 56 56 57 58 58 58 58 58 59 60 61 61 61 62 63 64 64 65 66 66 67 67 67 67 67 66 65 66 67 67 67 67 67 68 68 69 71 71 72 72 72 72 72 72 72 72 72 73 73 73 72 71 71 71 73 71 61 66 72 72 68 61 57 57 70 74 73 73
32 36 41 43 45 47 46 47 47 47 52 57 56 56 57 57 57 57 57 56 57 57 57 58 57 58 58 58 58 59 60 61 62 63 64 64 65 65 66 66 66 67 67 66 66 66 66 67 66 66 67 66 67 67 68 70 70 70 71 70 70 70 70 70 69 71 71 70 71 71 71 71 72 72 72 74 52 52 57 59 55 50 48 48 50 54 70
37 38 38 39 40 40 42 45 47 49 54 56 56 56 57 57 58 58 58 58 57 58 58 58 58 58 58 58 58 58 59 60 61 62 63 64 65 65 66 66 66 66 66 66 67 67 68 68 67 67 66 66 67 66 68 68 68 69 69 69 69 68 68 68 69 69 69 69 69 69 69 70 70 70 71 71 72 53 49 53 53 52 51 49 50 53 55
39 40 41 42 43 45 45 46 45 47 50 54 56 56 57 58 58 58 58 58 58 57 57 58 58 57 57 57 58 59 60 61 61 61 62 63 63 64 65 65 65 66 66 67 67 67 68 68 67 67 67 67 68 68 69 68 69 69 69 69 68 67 67 67 67 67 67 67 67 68 68 67 68 69 69 69 70 70 65 47 48 51 51 50 51 52 53
42 42 43 43 44 44 45 46 48 49 50 53 57 57 58 58 58 58 57 58 59 58 58 57 57 57 57 57 59 60 61 61 62 62 62 62 62 62 63 64 64 65 65 66 66 67 67 67 67 67 67 67 68 68 68 69 69 70 70 69 69 69 68 68 67 67 66 66 65 66 66 67 66 66 66 67 67 69 68 69 68 58 50 48 48 50 51
42 42 42 42 42 43 45 47 48 50 53 54 56 58 58 58 59 59 59 59 58 59 58 57 58 59 59 59 60 60 61 62 62 62 62 61 61 61 62 63 64 64 64 64 65 65 66 66 66 66 66 67 67 68 68 69 69 69 70 70 69 68 67 67 67 66 66 65 65 65 65 65 65 65 66 66 66 66 66 66 66 67 68 66 53 46 56
42 41 43 44 43 44 49 51 52 53 55 55 57 57 57 58 57 57 56 55 57 58 59 60 59 59 59 59 60 60 61 61 61 61 62 61 61 61 62 62 63 63 63 63 63 64 65 65 65 65 65 66 67 67 67 68 68 68 68 67 67 67 67 66 65 65 65 65 65 65 65 65 64 64 64 64 64 64 64 65 65 65 66 66 61 52 48
44 44 46 47 48 50 52 55 56 55 55 56 57 58 56 55 55 54 55 57 58 59 59 59 59 59 59 59 60 60 60 60 61 61 61 62 62 62 62 62 62 62 63 63 63 63 64 64 64 64 64 66 66 67 67 67 67 67 67 67 67 66 65 65 64 65 64 64 64 64 63 64 64 64 64 64 64 63 64 63 63 62 60 57 56 54 51
47 47 48 50 51 52 52 53 53 53 54 55 56 57 56 54 54 55 57 58 59 58 58 59 59 59 60 60 60 60 60 60 60 60 61 61 61 62 62 62 62 62 62 62 63 63 63 63 63 63 64 65 65 66 67 67 67 67 67 67 66 65 65 64 64 65 65 64 64 63 64 64 64 64 63 63 63 63 62 61 62 62 59 57 56 55 53
47 48 48 50 52 52 52 52 53 54 55 55 55 56 55 56 55 56 57 57 58 59 59 60 59 59 60 59 59 59 60 60 60 60 60 60 61 61 61 61 60 60 60 61 62 62 63 63 63 64 64 65 64 65 65 66 66 66 66 66 65 61 59 60 62 64 64 64 63 63 63 63 63 63 62 62 62 63 63 62 62 61 60 58 56 54 53
47 50 51 52 52 53 53 53 53 53 54 55 55 55 56 56 56 56 57 58 59 59 60 59 59 59 59 59 60 59 59 59 59 60 59 60 60 60 60 60 60 61 60 61 61 62 62 62 63 63 65 64 64 64 65 65 65 65 65 65 65 65 63 61 63 63 64 64 64 63 63 63 62 62 62 62 62 63 63 63 61 59 56 54 52 52 53
49 49 50 50 51 52 52 52 52 52 53 54 55 56 58 55 57 58 58 59 60 59 59 59 59 59 59 60 60 60 59 59 59 59 59 59 59 59 59 59 60 60 60 60 61 61 61 61 62 62 63 64 63 63 63 64 65 64 64 65 65 64 64 62 62 64 64 63 63 63 63 63 62 62 62 62 62 62 63 62 60 58 55 54 54 54 55
50 50 52 53 52 51 51 52 54 54 55 56 56 57 58 58 59 59 59 59 59 59 58 58 59 59 59 59 59 58 58 57 57 56 57 58 59 59 59 59 59 60 60 60 60 60 61 62 62 62 62 62 63 61 62 63 64 65 65 64 64 64 64 64 64 64 63 63 63 64 64 63 63 62 62 62 63 63 62 62 60 58 56 56 55 55 51
54 53 53 54 54 53 54 54 55 55 55 55 55 56 58 58 59 59 59 58 58 58 59 58 58 57 57 57 56 55 54 54 54 54 55 56 56 57 59 59 59 59 59 60 60 60 62 63 63 62 61 61 61 61 61 62 62 64 64 64 64 64 64 64 64 64 64 63 64 63 64 63 62 62 62 63 63 63 62 61 60 59 58 56 56 57 55
54 53 53 54 54 55 55 55 56 56 55 55 56 56 56 57 59 58 57 58 58 58 58 58 58 56 54 53 52 52 52 52 53 54 55 55 57 58 58 57 58 58 58 58 59 60 61 62 63 63 61 61 61 62 63 62 62 62 64 64 63 63 63 63 64 64 64 64 64 64 63 62 62 62 62 62 62 63 62 61 60 60 59 58 57 57 57
55 54 54 54 54 55 54 55 55 57 56 56 56 56 57 57 57 58 58 58 58 58 57 55 54 52 50 50 50 51 52 53 53 54 55 56 57 57 56 56 56 56 56 56 58 58 59 60 62 62 60 61 61 62 62 63 62 62 62 62 62 62 61 61 62 63 63 64 64 64 63 63 62 62 62 61 61 61 61 60 60 59 59 58 58 58 59
55 55 54 54 54 55 55 55 55 57 57 58 57 57 57 57 57 57 57 57 57 56 55 54 51 52 52 53 52 51 52 53 53 54 55 56 56 55 55 55 54 55 54 56 58 58 57 58 60 61 61 61 61 60 61 62 63 60 59 59 59 60 60 60 60 61 61 62 63 63 63 62 63 62 61 61 61 60 60 59 60 59 59 58 58 58 59
54 54 55 55 55 55 56 56 56 56 56 55 56 57 57 58 58 57 56 55 55 55 54 53 53 53 53 54 54 54 54 54 54 54 55 55 56 55 54 55 55 56 57 57 57 58 58 58 57 57 58 57 57 57 59 61 62 59 58 59 58 58 58 57 58 60 60 61 61 61 62 62 62 61 62 63 62 61 61 60 59 59 58 58 58 58 58
52 53 54 55 54 54 55 55 55 56 56 56 56 56 56 55 54 54 54 54 55 56 56 55 54 54 54 54 54 54 54 55 55 55 55 54 54 54 54 55 56 57 58 59 57 57 59 59 57 56 56 55 55 56 57 58 59 60 59 58 57 57 57 57 57 57 58 59 59 59 60 60 60 60 60 61 61 61 60 60 60 59 58 58 58 58 58
50 50 50 51 51 52 51 51 51 52 52 52 53 54 54 54 53 53 53 54 54 55 54 54 53 53 53 52 52 51 52 52 53 53 54 53 52 52 52 52 55 55 56 56 57 57 58 58 56 55 55 55 55 57 56 56 55 55 57 58 58 58 58 58 57 56 56 57 57 58 59 60 60 60 60 61 60 61 60 59 59 59 58 58 58 58 58
49 49 49 49 50 50 51 51 51 50 51 51 52 52 51 52 52 51 52 52 52 52 53 53 54 52 52 51 51 51 50 50 51 51 52 52 52 51 50 52 53 54 57 57 57 56 56 55 56 57 55 55 55 57 56 54 53 53 54 55 55 55 55 57 58 58 59 59 58 58 58 58 58 58 59 60 61 60 59 58 58 57 57 57 57 57 58
48 48 49 49 49 50 49 49 49 48 49 49 50 50 51 51 51 51 51 49 49 49 49 49 50 51 50 50 50 50 50 50 50 50 50 50 51 52 52 52 53 54 56 55 55 54 54 55 54 55 57 56 55 57 55 52 52 52 51 52 53 53 53 55 55 56 56 56 57 57 58 58 58 58 59 58 59 59 59 59 57 57 56 56 57 57 57
49 49 49 49 48 49 48 48 48 48 47 48 48 48 48 49 49 49 49 49 48 48 46 46 46 47 48 48 47 48 49 49 49 49 48 47 48 49 51 51 52 53 55 53 53 52 53 54 53 55 56 56 56 55 52 51 50 51 51 51 50 50 50 51 51 53 52 53 53 53 54 54 55 56 57 58 58 58 57 58 58 56 55 55 56 56 57
48 49 49 49 49 49 48 48 47 47 47 47 47 47 47 47 46 47 47 46 46 45 47 46 45 44 44 45 45 45 46 47 48 48 47 46 46 46 48 51 50 51 52 53 51 51 51 52 53 55 55 54 54 53 50 50 50 50 50 50 50 49 49 49 49 49 49 49 50 51 52 52 52 52 52 53 54 55 57 57 56 58 58 57 57 57 57
48 48 49 50 49 49 50 49 48 46 46 45 44 45 46 45 44 45 45 45 44 43 43 43 44 44 43 42 43 44 44 44 44 46 47 46 45 47 48 49 49 51 52 52 51 50 51 54 54 54 54 53 52 49 49 49 49 48 49 48 49 49 48 47 47 47 47 47 47 46 47 48 49 50 50 50 50 51 51 52 52 54 56 56 57 56 57
46 47 48 48 49 50 49 49 47 46 45 44 43 43 44 43 45 43 43 42 42 43 43 43 43 43 43 44 44 43 40 40 41 43 44 44 46 46 47 48 49 50 50 49 50 50 50 51 52 53 52 52 51 47 46 47 47 47 47 47 47 47 47 47 47 47 46 46 46 47 47 46 45 45 47 48 48 49 49 49 49 50 51 51 52 53 54
45 46 46 47 47 48 48 47 46 45 45 44 43 44 43 43 42 42 41 41 41 41 41 42 43 43 43 42 42 43 43 41 38 40 42 42 43 44 44 44 46 48 47 48 49 50 51 51 51 51 51 50 47 46 45 44 45 46 45 46 47 46 46 46 46 46 45 45 45 45 44 43 44 43 43 43 44 46 47 47 47 48 48 49 49 50 50
43 44 44 45 45 46 45 45 45 46 44 44 44 43 43 42 42 42 41 40 40 40 39 40 40 41 42 44 44 42 43 44 44 41 42 42 42 42 43 45 47 47 45 44 45 46 49 49 49 49 49 49 46 46 45 45 45 46 46 45 45 45 45 45 45 46 45 44 44 44 44 43 43 43 42 42 42 42 43 43 45 47 47 48 48 48 49
42 42 42 43 43 44 44 43 43 43 44 44 43 43 42 41 40 40 41 40 40 40 38 38 39 40 40 39 40 42 42 43 43 43 43 43 42 42 42 43 44 45 45 43 43 43 47 48 47 48 47 46 45 46 46 46 45 46 45 46 45 45 45 45 45 45 45 44 43 43 43 43 42 42 43 43 42 42 42 42 41 42 43 44 46 46 47
41 42 42 43 42 43 43 44 43 43 42 42 41 42 42 40 40 41 39 40 39 39 37 38 38 38 38 39 39 39 40 40 41 43 41 41 42 42 42 40 41 42 42 40 40 40 41 43 45 45 45 45 44 45 45 45 44 44 45 45 44 45 44 44 43 43 43 43 42 42 42 42 42 42 41 41 41 41 41 41 41 41 40 40 40 41 41
40 42 42 42 42 42 41 41 42 42 43 42 41 40 39 39 38 38 38 41 38 38 39 39 38 39 38 38 38 38 39 39 39 38 41 41 39 37 39 40 37 37 37 37 37 39 39 41 44 45 45 42 43 43 45 45 43 42 43 44 43 41 43 43 43 42 42 42 41 41 41 41 41 40 41 41 41 41 41 40 40 41 40 40 41 41 40